OK2ILA-1 Weather Reports


time (UTC)temp
C
wind
direction
speed
KPH
gust
KPH
rain 1hr
cm
rain 24hr
cm
rain mn
cm
humidity
%
barometer
mb
20260506205248 18 189 9.7 19.3 0.00 0.00 0.00 100 1007.3
20260506204047 19 157 17.7 24.1 0.00 0.00 0.00 100 1007.3
20260506202847 19 188 14.5 25.7 0.00 0.00 0.00 100 1007.2
20260506201646 19 195 14.5 17.7 0.00 0.00 0.00 100 1007.3
20260506200445 19 160 11.3 20.9 0.00 0.00 0.00 100 1007.1
20260506195245 19 185 11.3 20.9 0.00 0.00 0.00 100 1007.1
20260506194044 19 158 6.4 14.5 0.00 0.00 0.00 100 1007.0
20260506192843 19 143 8.0 12.9 0.00 0.00 0.00 100 1007.0
20260506191643 19 180 8.0 11.3 0.00 0.00 0.00 100 1007.0
20260506191245 19 147 8.0 8.0 0.00 0.00 0.00 100 1006.8
20260506190442 20 165 8.0 12.9 0.00 0.00 0.00 100 1006.7
20260506185241 20 135 11.3 19.3 0.00 0.00 0.00 100 1006.6
20260506184040 20 144 8.0 25.7 0.00 0.00 0.00 100 1006.4
20260506182840 20 137 12.9 25.7 0.00 0.00 0.00 100 1006.2
20260506181639 20 153 22.5 24.1 0.00 0.00 0.00 100 1006.2
20260506180438 21 156 16.1 29.0 0.00 0.00 0.00 100 1006.2
20260506175238 21 153 17.7 30.6 0.00 0.00 0.00 100 1006.2
20260506174037 21 135 16.1 33.8 0.00 0.00 0.00 100 1006.2
20260506172836 21 150 22.5 32.2 0.00 0.00 0.00 100 1006.2
20260506171636 22 157 17.7 30.6 0.00 0.00 0.00 100 1006.3
20260506170435 22 178 17.7 37.0 0.00 0.00 0.00 100 1006.5
20260506165234 22 182 27.4 40.2 0.00 0.00 0.00 100 1006.4
20260506164034 22 199 24.1 35.4 0.00 0.00 0.00 100 1006.4
20260506162833 23 203 22.5 29.0 0.00 0.00 0.00 100 1006.5
20260506161632 23 160 27.4 33.8 0.00 0.00 0.00 100 1006.7
20260506160432 23 154 19.3 27.4 0.00 0.00 0.00 100 1006.8
20260506155231 23 188 11.3 20.9 0.00 0.00 0.00 100 1007.1
20260506154030 22 165 14.5 19.3 0.00 0.00 0.00 100 1007.4
20260506152830 22 146 19.3 27.4 0.00 0.00 0.00 100 1007.4
20260506151629 23 191 11.3 20.9 0.00 0.00 0.00 100 1007.4
20260506150428 23 181 16.1 22.5 0.00 0.00 0.00 100 1007.5
20260506145227 23 194 11.3 17.7 0.00 0.00 0.00 100 1007.7
20260506144027 23 184 11.3 24.1 0.00 0.00 0.00 100 1007.8
20260506142826 23 187 14.5 24.1 0.00 0.00 0.00 100 1007.8
20260506141625 23 188 9.7 20.9 0.00 0.00 0.00 100 1007.9
20260506140425 24 170 25.7 32.2 0.00 0.00 0.00 100 1007.9
20260506135224 23 212 14.5 27.4 0.00 0.00 0.00 100 1008.0
20260506134023 25 175 16.1 27.4 0.00 0.00 0.00 100 1008.1
20260506132823 23 201 12.9 27.4 0.00 0.00 0.00 100 1008.2
20260506131622 23 226 17.7 27.4 0.00 0.00 0.00 100 1008.3
20260506130421 25 215 16.1 25.7 0.00 0.00 0.00 100 1008.3
20260506125221 25 177 17.7 38.6 0.00 0.00 0.00 100 1008.2
20260506124020 25 149 25.7 30.6 0.00 0.00 0.00 100 1008.4
20260506122819 25 171 8.0 25.7 0.00 0.00 0.00 100 1008.5
20260506121619 25 180 14.5 24.1 0.00 0.00 0.00 100 1008.4
20260506120418 24 168 22.5 27.4 0.00 0.00 0.00 100 1008.5
20260506115217 25 189 17.7 33.8 0.00 0.00 0.00 100 1008.4
20260506114017 23 185 16.1 33.8 0.00 0.00 0.00 100 1008.5
20260506112816 24 161 27.4 32.2 0.00 0.00 0.00 100 1008.5
20260506111615 24 223 22.5 33.8 0.00 0.00 0.00 100 1008.6
20260506110415 24 180 16.1 32.2 0.00 0.00 0.00 100 1008.6
20260506105214 24 187 27.4 40.2 0.00 0.00 0.00 100 1008.5
20260506104013 24 163 29.0 33.8 0.00 0.00 0.00 100 1008.4
20260506102813 23 185 22.5 37.0 0.00 0.00 0.00 100 1008.6
20260506101612 23 188 14.5 29.0 0.00 0.00 0.00 100 1008.7
20260506100411 22 178 24.1 30.6 0.00 0.00 0.00 100 1008.8
20260506095210 23 192 22.5 25.7 0.00 0.00 0.00 100 1009.0
20260506094010 23 175 25.7 27.4 0.00 0.00 0.00 100 1009.0
20260506092809 21 246 12.9 24.1 0.00 0.00 0.00 100 1009.1
20260506091608 21 219 16.1 25.7 0.00 0.00 0.00 100 1009.0
20260506090408 22 225 11.3 32.2 0.00 0.00 0.00 100 1009.0
20260506085207 21 222 22.5 32.2 0.00 0.00 0.00 100 1009.0
20260506084006 21 170 11.3 27.4 0.00 0.00 0.00 100 1008.8
20260506082806 21 196 16.1 27.4 0.00 0.00 0.00 100 1008.7
20260506081605 21 195 12.9 33.8 0.00 0.00 0.00 100 1008.6
20260506080404 21 241 22.5 33.8 0.00 0.00 0.00 100 1008.6
20260506072802 20 182 17.7 32.2 0.00 0.00 0.00 100 1008.5
20260506071602 19 172 17.7 29.0 0.00 0.00 0.00 100 1008.6
20260506070401 19 234 14.5 29.0 0.00 0.00 0.00 100 1008.6
20260506061558 17 180 9.7 16.1 0.00 0.00 0.00 100 1008.3
20260506060358 17 201 12.9 19.3 0.00 0.00 0.00 100 1008.3
20260506022745 13 338 1.6 6.4 0.00 0.00 0.00 100 1007.1
20260506021545 14 36 0.0 6.4 0.00 0.00 0.00 100 1007.2
20260506020344 14 281 0.0 3.2 0.00 0.00 0.00 100 1007.3
20260506015143 14 84 0.0 1.6 0.00 0.00 0.00 100 1007.3
20260506013943 14 130 3.2 3.2 0.00 0.00 0.00 100 1007.3
20260506012742 15 209 0.0 3.2 0.00 0.00 0.00 100 1007.4
20260506011541 15 262 0.0 4.8 0.00 0.00 0.00 100 1007.3
20260506010341 15 202 1.6 6.4 0.00 0.00 0.00 100 1007.3
20260506005140 15 248 3.2 8.0 0.00 0.00 0.00 100 1007.3
20260506003939 15 208 14.5 14.5 0.00 0.00 0.00 100 1007.1
20260506002738 15 182 6.4 11.3 0.00 0.00 0.00 100 1007.0
20260506001538 15 181 4.8 4.8 0.00 0.00 0.00 100 1007.2
20260506000337 15 185 9.7 12.9 0.00 0.00 0.00 100 1007.1
20260505235136 15 208 4.8 12.9 0.00 0.00 0.00 100 1007.3
20260505233936 16 215 4.8 9.7 0.00 0.00 0.00 100 1007.5
20260505232735 16 127 4.8 12.9 0.00 0.00 0.00 100 1007.5
20260505231534 16 170 3.2 8.0 0.00 0.00 0.00 100 1007.6
20260505230334 16 163 4.8 6.4 0.00 0.00 0.00 100 1007.7
20260505225133 16 229 0.0 9.7 0.00 0.00 0.00 100 1007.7
20260505223932 16 181 6.4 12.9 0.00 0.00 0.00 100 1007.7
20260505222732 16 243 3.2 9.7 0.00 0.00 0.00 100 1007.7
20260505221531 16 251 3.2 14.5 0.00 0.00 0.00 100 1007.7
20260505220330 16 187 6.4 11.3 0.00 0.00 0.00 100 1007.7
20260505215130 17 184 6.4 17.7 0.00 0.00 0.00 100 1007.8
20260505213929 17 146 4.8 16.1 0.00 0.00 0.00 100 1007.9
20260505212728 17 184 6.4 11.3 0.00 0.00 0.00 100 1008.0
20260505211528 17 206 12.9 12.9 0.00 0.00 0.00 100 1007.8
20260505210327 18 191 1.6 8.0 0.00 0.00 0.00 100 1007.8